Miscellaneous Local Product
Issued by NWS North Platte, NE

Home | Current Version | Previous Version | Text Only | Print | Product List | Glossary On
Versions: 1 2 3 4 5 6 7 8 9 10 11 12 13 14 15 16 17 18 19 20 21 22 23 24 25 26 27 28 29 30 31 32 33 34 35 36 37 38 39 40 41 42 43 44 45 46 47 48 49 50
000
AXUS43 KLBF 231310
MISLBF


WESTERN AND NORTH CENTRAL NEBRASKA HOURLY WEATHER ROUNDUP
NATIONAL WEATHER SERVICE NORTH PLATTE NE
800 AM CDT THU OCT 23 2014

***STATIONS NOT REPORTING VARIABLES SUCH AS SKY/WEATHER OR
PRESSURE ARE PROVIDED BY THE NEBRASKA DEPARTMENT OF
ROADS...RAWS...AND APRS NETWORKS...AND ARE NOT UNDER
NATIONAL WEATHER SERVICE QUALITY CONTROL***

...OBSERVATIONS IN AND NEAR THE EASTERN PANHANDLE OF NEBRASKA...

CITY           SKY/WX    TMP DP  RH WIND       PRES   REMARKS
PINE RIDGE     CLEAR     24  21  88 CALM      30.03S
CHADRON        PTCLDY    29  24  82 W6        30.04F WCI  23
ALLIANCE       CLEAR     26  21  81 CALM      30.08S
SIDNEY         CLEAR     35  31  85 W8        30.12R WCI  29
WHITECLAY        N/A     27  21  80 SE5         N/A  WCI  21
RUSHVILLE        N/A     23  21  94 SW6         N/A  WCI  15
CRESCENT LAKE    N/A     41  29  61 SW5         N/A
LISCO            N/A     30  27  86 CALM        N/A
BIG SPRINGS      N/A     38  35  90 CALM        N/A
LEWELLEN         N/A     30  28  93 CALM        N/A
$$

...OBSERVATIONS IN NORTH CENTRAL NEBRASKA...

CITY           SKY/WX    TMP DP  RH WIND       PRES   REMARKS
VALENTINE      CLEAR     30  29  96 W6        30.03R WCI  24
THEDFORD       FOG       44  44  98 CALM      30.07S VSB 1/4
AINSWORTH      MOCLDY    42  42  99 SW3       30.03S FOG
O`NEILL        FOG       38  38 100 SW5       30.04S VSB 1/4 WCI  34
ORD            FOG       37  37 100 CALM      30.06S VSB 1/2
BROKEN BOW     FOG       39  38  96 CALM      30.06S VSB 1/4
BROWNLEE         N/A     46  45  98 S8          N/A
SPRINGVIEW       N/A     30  29  95 CALM        N/A
BREWSTER         N/A     43  43  99 CALM        N/A
ROSE             N/A     39  39  99 S5          N/A
NEWPORT          N/A     38  38  99 CALM        N/A
SARGENT          N/A     36  35  98 CALM        N/A
COMSTOCK         N/A     42  42  99 CALM        N/A
CHAMBERS         N/A     41  40  98 S3          N/A
EWING            N/A     36  35  96 CALM        N/A
$$

...OBSERVATIONS IN SOUTHWEST NEBRASKA AND FAR NORTHEAST COLORADO...

CITY           SKY/WX    TMP DP  RH WIND       PRES   REMARKS
WRAY           FAIR      38  34  84 W8        30.11S WCI  32
HOLYOKE        FAIR      41  34  75 SW7       30.10F
IMPERIAL       CLEAR     42  32  67 W6        30.10S
OGALLALA       CLEAR     35  33  93 W6        30.10R WCI  30
NORTH PLATTE   FOG       36  35  96 NW3       30.09R VSB 1/4
MCCOOK         FOG       46  45  96 W5        30.10S VSB 1/4
LEXINGTON      FOG       47  46  99 W3        30.08R VSB 1/4
PAXTON           N/A     35  31  85 CALM        N/A
SUTHERLAND       N/A     30  28  93 W7          N/A  WCI  23
BRADY            N/A     45  43  94 CALM        N/A
GOTHENBURG       N/A     46  44  92 W3          N/A
CALLAWAY         N/A     47  46  98 S5          N/A
$$

...SOME WEATHER OBSERVATIONS FROM AROUND THE REGION...

CITY           SKY/WX    TMP DP  RH WIND       PRES   REMARKS
DENVER         PTCLDY    43  35  73 SW9       30.17R
LARAMIE        PTCLDY    43  28  55 SW14      30.20F
CHEYENNE       PTCLDY    38  28  67 CALM      30.16R
SCOTTSBLUFF    PTCLDY    30  28  92 CALM      30.10S
RAPID CITY     CLEAR     39  24  55 W8        29.98S WCI  33
PIERRE         CLEAR     36  33  89 CALM      29.97R
WINNER         FAIR      49  43  80 SW13      29.99S
SIOUX FALLS    FOG       42  41  96 CALM      30.01S VSB 1/4
OMAHA          CLOUDY    62  58  86 W3        30.04S FOG
GRAND ISLAND   FOG       46  44  93 SW3       30.08R VSB 1/4
KANSAS CITY    CLOUDY    56  55  97 S6        30.07S FOG
WICHITA        CLOUDY    62  58  86 S8        30.08R
HAYS           CLOUDY    55  52  88 NE5       30.08S
LIBERAL        CLOUDY    52  48  87 SW5       30.09R VSB 1/4
GOODLAND       CLEAR     43  41  93 W5        30.13R
$$



USA.gov is the U.S. government's official web portal to all federal, state and local government web resources and services.